FW7282 Weather Reports


Display with metric or nautical units.
time (UTC)temp
F
wind
direction
speed
MPH
gust
MPH
rain 1hr
in
rain 24hr
in
rain mn
in
humidity
%
barometer
mb
20210517032911 64 0.0 0.0 0.00 0.00 0.00 78 1021.0
20210517031914 64 0.0 0.0 0.00 0.00 0.00 78 1021.0
20210517030843 64 0.0 0.0 0.00 0.00 0.00 77 1021.0
20210517025852 65 0.0 0.0 0.00 0.00 0.00 77 1021.0
20210517024840 65 0.0 0.0 0.00 0.00 0.00 76 1021.0
20210517023838 66 0.0 0.0 0.00 0.00 0.00 76 1020.9
20210517022836 66 0.0 0.0 0.00 0.00 0.00 75 1020.8
20210517021842 66 0.0 0.0 0.00 0.00 0.00 74 1020.8
20210517020817 67 0.0 0.0 0.00 0.00 0.00 73 1020.7
20210517015815 68 0.0 0.0 0.00 0.00 0.00 72 1020.6
20210517014823 68 0.0 0.0 0.00 0.00 0.00 72 1020.5
20210517013813 69 0.0 0.0 0.00 0.00 0.00 71 1020.4
20210517012816 69 0.0 0.0 0.00 0.00 0.00 71 1020.4
20210517011815 70 0.0 0.0 0.00 0.00 0.00 70 1020.4
20210517010744 71 0.0 0.0 0.00 0.00 0.00 69 1020.3
20210517005739 72 0.0 0.0 0.00 0.00 0.00 68 1020.2
20210517004740 73 0.0 0.0 0.00 0.00 0.00 67 1020.3
20210517003736 73 0.0 0.0 0.00 0.00 0.00 66 1020.2
20210517002742 75 0.0 0.0 0.00 0.00 0.00 65 1020.2
20210517001715 76 0.0 0.0 0.00 0.00 0.00 64 1020.2
20210517000716 77 0.0 0.0 0.00 0.00 0.00 62 1020.1
20210516235640 77 0.0 0.0 0.00 0.00 0.00 60 1020.0
20210516234642 78 0.0 0.0 0.00 0.00 0.00 59 1020.0
20210516233721 79 0.0 0.0 0.00 0.00 0.00 58 1020.0
20210516232712 80 0.0 0.0 0.00 0.00 0.00 55 1020.0
20210516231640 80 0.0 0.0 0.00 0.00 0.00 52 1020.0
20210516230638 81 0.0 0.0 0.00 0.00 0.00 53 1020.0
20210516225645 82 0.0 0.0 0.00 0.00 0.00 52 1019.9
20210516224639 82 0.0 0.0 0.00 0.00 0.00 51 1019.9
20210516223612 83 0.0 0.0 0.00 0.00 0.00 49 1019.9
20210516222539 83 0.0 0.0 0.00 0.00 0.00 48 1020.0
20210516221542 84 0.0 0.0 0.00 0.00 0.00 49 1020.0
20210516220541 84 0.0 0.0 0.00 0.00 0.00 49 1020.0
20210516215545 84 0.0 0.0 0.00 0.00 0.00 49 1020.0
20210516214539 85 0.0 0.0 0.00 0.00 0.00 49 1020.1
20210516213516 85 0.0 0.0 0.00 0.00 0.00 50 1020.1
20210516212512 86 0.0 0.0 0.00 0.00 0.00 47 1020.2
20210516211516 86 0.0 0.0 0.00 0.00 0.00 48 1020.1
20210516210512 86 0.0 0.0 0.00 0.00 0.00 48 1020.1
20210516205513 86 0.0 0.0 0.00 0.00 0.00 47 1020.2
20210516204513 86 0.0 0.0 0.00 0.00 0.00 48 1020.3
20210516203514 86 0.0 0.0 0.00 0.00 0.00 49 1020.4
20210516202514 86 0.0 0.0 0.00 0.00 0.00 48 1020.5
20210516201442 87 0.0 0.0 0.00 0.00 0.00 45 1020.7
20210516200445 87 0.0 0.0 0.00 0.00 0.00 45 1020.7
20210516195438 87 0.0 0.0 0.00 0.00 0.00 45 1021.0
20210516194447 87 0.0 0.0 0.00 0.00 0.00 47 1020.8
20210516193442 87 0.0 0.0 0.00 0.00 0.00 45 1020.8
20210516192442 87 0.0 0.0 0.00 0.00 0.00 46 1021.4
20210516191438 88 0.0 0.0 0.00 0.00 0.00 43 1021.5
20210516190443 88 0.0 0.0 0.00 0.00 0.00 45 1021.6
20210516185442 88 0.0 0.0 0.00 0.00 0.00 46 1021.7
20210516184513 88 0.0 0.0 0.00 0.00 0.00 46 1021.7
20210516183439 87 0.0 0.0 0.00 0.00 0.00 45 1021.9
20210516182412 87 0.0 0.0 0.00 0.00 0.00 47 1022.0
20210516181411 86 0.0 0.0 0.00 0.00 0.00 47 1022.1
20210516180414 86 0.0 0.0 0.00 0.00 0.00 47 1022.2
20210516175418 86 0.0 0.0 0.00 0.00 0.00 45 1022.2
20210516174415 86 0.0 0.0 0.00 0.00 0.00 47 1022.4
20210516173414 85 0.0 0.0 0.00 0.00 0.00 45 1022.4
20210516172415 85 0.0 0.0 0.00 0.00 0.00 46 1022.7
20210516171342 85 0.0 0.0 0.00 0.00 0.00 47 1022.7
20210516170411 85 0.0 0.0 0.00 0.00 0.00 47 1022.5
20210516165343 85 0.0 0.0 0.00 0.00 0.00 48 1022.5
20210516164342 84 0.0 0.0 0.00 0.00 0.00 47 1022.5
20210516163342 84 0.0 0.0 0.00 0.00 0.00 49 1022.7
20210516162238 84 0.0 0.0 0.00 0.00 0.00 48 1022.8
20210516161220 83 0.0 0.0 0.00 0.00 0.00 50 1023.0
20210516160343 82 0.0 0.0 0.00 0.00 0.00 48 1023.2
20210516155314 82 0.0 0.0 0.00 0.00 0.00 50 1023.5
20210516154412 81 0.0 0.0 0.00 0.00 0.00 51 1023.7
20210516153346 80 0.0 0.0 0.00 0.00 0.00 54 1023.5
20210516152246 78 0.0 0.0 0.00 0.00 0.00 54 1023.5
20210516151241 77 0.0 0.0 0.00 0.00 0.00 56 1023.6
20210516150214 76 0.0 0.0 0.00 0.00 0.00 58 1023.8
20210516145140 74 0.0 0.0 0.00 0.00 0.00 58 1023.9
20210516144237 73 0.0 0.0 0.00 0.00 0.00 61 1023.9
20210516143212 71 0.0 0.0 0.00 0.00 0.00 65 1024.0
20210516142114 69 0.0 0.0 0.00 0.00 0.00 68 1023.8
20210516141115 68 0.0 0.0 0.00 0.00 0.00 70 1023.8
20210516140244 66 0.0 0.0 0.00 0.00 0.00 72 1023.7
20210516135211 64 0.0 0.0 0.00 0.00 0.00 74 1023.8
20210516134215 63 0.0 0.0 0.00 0.00 0.00 77 1023.8
20210516133113 62 0.0 0.0 0.00 0.00 0.00 79 1023.7
20210516132139 61 0.0 0.0 0.00 0.00 0.00 82 1023.7
20210516131139 60 0.0 0.0 0.00 0.00 0.00 85 1023.7
20210516130139 59 0.0 0.0 0.00 0.00 0.00 88 1023.6
20210516125145 58 0.0 0.0 0.00 0.00 0.00 91 1023.6
20210516124112 57 0.0 0.0 0.00 0.00 0.00 92 1023.6
20210516123113 57 0.0 0.0 0.00 0.00 0.00 92 1023.5
20210516122125 56 0.0 0.0 0.00 0.00 0.00 92 1023.4
20210516121125 55 0.0 0.0 0.00 0.00 0.00 93 1023.5
20210516120111 54 0.0 0.0 0.00 0.00 0.00 93 1023.4
20210516115113 54 0.0 0.0 0.00 0.00 0.00 93 1023.4
20210516114042 53 0.0 0.0 0.00 0.00 0.00 93 1023.3
20210516113040 53 0.0 0.0 0.00 0.00 0.00 92 1023.2
20210516112215 52 0.0 0.0 0.00 0.00 0.00 92 1023.0
20210516111043 52 0.0 0.0 0.00 0.00 0.00 92 1022.9
20210516110020 52 0.0 0.0 0.00 0.00 0.00 91 1022.7
20210516105012 52 0.0 0.0 0.00 0.00 0.00 91 1022.4
20210516104016 52 0.0 0.0 0.00 0.00 0.00 91 1022.3
20210516103017 52 0.0 0.0 0.00 0.00 0.00 90 1022.2
20210516101911 52 0.0 0.0 0.00 0.00 0.00 90 1022.1
20210516101015 52 0.0 0.0 0.00 0.00 0.00 90 1022.0
20210516095940 52 0.0 0.0 0.00 0.00 0.00 90 1021.9
20210516094942 52 0.0 0.0 0.00 0.00 0.00 90 1021.8
20210516093944 52 0.0 0.0 0.00 0.00 0.00 90 1021.8
20210516092937 52 0.0 0.0 0.00 0.00 0.00 90 1021.8
20210516091941 52 0.0 0.0 0.00 0.00 0.00 90 1021.7
20210516090911 53 0.0 0.0 0.00 0.00 0.00 90 1021.6
20210516085915 53 0.0 0.0 0.00 0.00 0.00 89 1021.5
20210516084919 53 0.0 0.0 0.00 0.00 0.00 89 1021.3
20210516083914 53 0.0 0.0 0.00 0.00 0.00 89 1021.3
20210516082915 53 0.0 0.0 0.00 0.00 0.00 89 1021.2
20210516081843 53 0.0 0.0 0.00 0.00 0.00 88 1021.0
20210516080914 54 0.0 0.0 0.00 0.00 0.00 88 1021.0
20210516075839 54 0.0 0.0 0.00 0.00 0.00 88 1020.8
20210516074912 54 0.0 0.0 0.00 0.00 0.00 88 1020.6
20210516073840 54 0.0 0.0 0.00 0.00 0.00 88 1020.5
20210516072843 54 0.0 0.0 0.00 0.00 0.00 87 1020.5
20210516071813 55 0.0 0.0 0.00 0.00 0.00 87 1020.4
20210516070913 55 0.0 0.0 0.00 0.00 0.00 87 1020.5
20210516065814 55 0.0 0.0 0.00 0.00 0.00 87 1020.5
20210516064813 55 0.0 0.0 0.00 0.00 0.00 86 1020.4
20210516063814 55 0.0 0.0 0.00 0.00 0.00 86 1020.5
20210516062815 55 0.0 0.0 0.00 0.00 0.00 86 1020.6
20210516061740 56 0.0 0.0 0.00 0.00 0.00 86 1020.6
20210516060742 56 0.0 0.0 0.00 0.00 0.00 85 1020.7
20210516055743 56 0.0 0.0 0.00 0.00 0.00 85 1020.9
20210516054812 56 0.0 0.0 0.00 0.00 0.00 85 1021.0
20210516053737 57 0.0 0.0 0.00 0.00 0.00 84 1021.1
20210516052743 57 0.0 0.0 0.00 0.00 0.00 84 1021.1
20210516051739 57 0.0 0.0 0.00 0.00 0.00 84 1021.2
20210516050714 57 0.0 0.0 0.00 0.00 0.00 84 1021.1
20210516045715 58 0.0 0.0 0.00 0.00 0.00 83 1021.1
20210516044712 58 0.0 0.0 0.00 0.00 0.00 83 1021.1
20210516043721 58 0.0 0.0 0.00 0.00 0.00 82 1021.0
20210516042714 58 0.0 0.0 0.00 0.00 0.00 82 1021.1
20210516041713 59 0.0 0.0 0.00 0.00 0.00 81 1021.2
20210516040713 59 0.0 0.0 0.00 0.00 0.00 81 1021.3
20210516035637 59 0.0 0.0 0.00 0.00 0.00 81 1021.3
20210516034640 60 0.0 0.0 0.00 0.00 0.00 80 1021.2
20210516033641 60 0.0 0.0 0.00 0.00 0.00 80 1021.4